Location: Bridgewater
(44.3670°N, 64.5170°W)
Time: 11:55:03
(UTC-03:00)

Amateur Radio Satellites - All Passes

Search period start: 06 May 2016 11:25
Search period end: 07 May 2016 11:25
Location: Bridgewater, 44.3670°N, 64.5170°W

Satellite Date Start Highest point End Downlink Frequencies (MHz)
Time Altitude Azimuth
ANTELSAT 06 May 11:31:27 11:35:41 35° 263° (W) 11:39:52 437.575/2403.000
DELFI C3 06 May 11:42:08 11:45:56 43° 288° (WNW) 11:49:45 145.870
GONETS M04 06 May 11:45:07 11:53:52 67° 78° (ENE) 12:02:30
HUMSAT D 06 May 11:48:43 11:52:49 87° 284° (WNW) 11:56:54 437.325/437.525
VELOX 1 06 May 11:51:21 11:53:43 14° 90° (E) 11:56:05 145.980
PHONESAT 2.4 06 May 11:52:14 11:55:11 38° 185° (S) 11:58:09 2401.200-2431.200
JAS-2 06 May 11:53:17 11:57:49 20° 54° (NE) 12:02:42 435.910
Oscar 11 06 May 11:54:32 11:57:40 20° 295° (WNW) 12:00:47 145.826/435.025
50 SAT 06 May 12:07:16 12:10:04 21° 94° (E) 12:12:53 437.505
DUCHIFAT 1 06 May 12:10:07 12:14:22 69° 258° (WSW) 12:18:38 145.980
ISS 06 May 12:10:29 12:13:43 59° 26° (NNE) 12:16:57 145.825
FUNcube-1 06 May 12:12:22 12:14:50 15° 297° (WNW) 12:17:15 145.935
AO-85 06 May 12:12:40 12:17:53 48° 118° (ESE) 12:23:04 145.980
QB50P2 06 May 12:16:12 12:20:22 51° 260° (W) 12:24:34 145.880/145.840
AIST 1 06 May 12:17:50 12:22:01 42° 268° (W) 12:26:10
POLYITAN 1 06 May 12:18:24 12:22:35 50° 260° (W) 12:26:46 437.675
POPSAT HIP 1 06 May 12:19:56 12:24:05 49° 260° (W) 12:28:17 437.405
AISAT 06 May 12:22:46 12:26:46 31° 96° (E) 12:30:42 437.250
QB50P1 06 May 12:22:50 12:26:57 45° 261° (W) 12:31:05 145.935-145.965
UNISAT 6 06 May 12:30:36 12:30:43 10° 272° (W) 12:30:50 437.425
BUGSAT 1 06 May 12:35:27 12:39:42 74° 259° (WSW) 12:43:59 437.445
CUBEBUG 1 06 May 12:48:13 12:52:36 55° 100° (E) 12:56:56 437.445
Oscar 19 06 May 12:52:07 12:56:26 28° 64° (ENE) 13:00:47 437.125/150
NANOSAT C BR1 06 May 12:56:25 12:59:44 22° 266° (W) 13:03:04 145.865
ESTCUBE 1 06 May 12:57:05 13:01:39 87° 288° (WNW) 13:06:12 437.505/2401.250
Cosmos 2499 06 May 12:58:07 13:05:57 80° 264° (W) 13:14:23 435.465 / 435.565
UKube-1 06 May 13:08:20 13:12:40 64° 102° (ESE) 13:16:58 .
DX 1 06 May 13:09:13 13:13:39 80° 104° (ESE) 13:18:01 434.975-435.025
Gurwin Techsat 1B 06 May 13:18:51 13:22:47 22° 61° (ENE) 13:26:44 435.225
VELOX 1 06 May 13:26:10 13:30:36 61° 287° (WNW) 13:34:59 145.980
PHONESAT 2.4 06 May 13:29:17 13:31:36 19° 202° (SSW) 13:33:56 2401.200-2431.200
O/OREOS (USA 219) 06 May 13:29:18 13:30:41 11° 97° (E) 13:32:04 437.305
SPROUT 06 May 13:30:49 13:35:06 61° 102° (ESE) 13:39:18 437.525
JAS-2 06 May 13:35:39 13:41:50 85° 256° (WSW) 13:48:56 435.910
50 SAT 06 May 13:40:44 13:43:52 27° 291° (WNW) 13:47:01 437.505
SO-50 06 May 13:41:37 13:44:31 16° 32° (NNE) 13:47:24 436.795
GONETS M04 06 May 13:42:56 13:49:57 28° 279° (W) 13:56:55
ISS 06 May 13:47:25 13:49:56 21° 224° (SW) 13:52:27 145.825
TISAT 1 06 May 13:50:20 13:54:02 29° 96° (E) 13:57:42 437.305
AO-85 06 May 13:53:40 13:58:36 34° 316° (NW) 14:03:26 145.980
AISAT 06 May 13:59:21 14:03:10 28° 293° (WNW) 14:06:56 437.250
AO-7 06 May 14:09:24 14:15:28 23° 49° (NE) 14:21:33 29.400- 29.500
SWISSCUBE 06 May 14:12:30 14:13:55 11° 88° (E) 14:15:21 437.505
ITAMSAT 1 06 May 14:19:14 14:23:43 31° 65° (ENE) 14:28:11 435.822/435.867
CUBEBUG 1 06 May 14:25:37 14:28:28 17° 298° (WNW) 14:31:18 437.445
Oscar 19 06 May 14:30:41 14:35:33 41° 262° (W) 14:40:30 437.125/150
ESTCUBE 1 06 May 14:36:35 14:37:43 11° 302° (WNW) 14:38:51 437.505/2401.250
BEESAT 06 May 14:43:22 14:47:00 21° 93° (E) 14:50:38 436.000
UKube-1 06 May 14:45:51 14:48:12 14° 299° (WNW) 14:50:33 .
PCSat 06 May 14:45:54 14:50:28 28° 109° (ESE) 14:55:04 145.827
DX 1 06 May 14:47:28 14:49:12 12° 301° (WNW) 14:50:55 434.975-435.025
Cosmos 2499 06 May 14:53:38 14:57:54 16° 283° (WNW) 15:02:19 435.465 / 435.565
Gurwin Techsat 1B 06 May 14:57:06 15:02:19 58° 259° (W) 15:07:34 435.225
O/OREOS (USA 219) 06 May 15:04:48 15:09:24 79° 294° (WNW) 15:14:01 437.305
CUSAT 1 06 May 15:07:39 15:11:22 48° 92° (E) 15:16:15 437.405
SPROUT 06 May 15:08:13 15:10:33 15° 298° (WNW) 15:12:53 437.525
SO-50 06 May 15:21:07 15:25:53 73° 54° (NE) 15:30:28 436.795
JAS-2 06 May 15:24:50 15:28:08 14° 277° (W) 15:31:38 435.910
TISAT 1 06 May 15:26:04 15:29:37 26° 293° (WNW) 15:33:08 437.305
AO-85 06 May 15:39:22 15:40:42 11° 338° (NNW) 15:42:01 145.980
ITUPSAT 1 06 May 15:40:20 15:45:07 75° 102° (ESE) 15:49:54 437.325
KKS-1 06 May 15:44:31 15:45:38 11° 88° (E) 15:46:45 437.445
SWISSCUBE 06 May 15:47:32 15:52:20 83° 286° (WNW) 15:57:06 437.505
ITAMSAT 1 06 May 15:58:19 16:03:05 37° 263° (W) 16:07:52 435.822/435.867
AO-7 06 May 15:58:54 16:07:11 87° 70° (ENE) 16:15:32 29.400- 29.500
HORYU 2 06 May 16:09:38 16:13:09 23° 65° (ENE) 16:16:41 437.375
MOZHAYETS 4 06 May 16:15:39 16:18:35 17° 91° (E) 16:21:31
BEESAT 06 May 16:20:28 16:25:00 45° 290° (WNW) 16:29:31 436.000
DANDE 06 May 16:28:01 16:31:09 53° 285° (WNW) 16:35:15 436.750
PCSat 06 May 16:28:25 16:33:38 47° 308° (NW) 16:38:53 145.827
O/OREOS (USA 219) 06 May 16:47:55 16:49:36 12° 314° (NW) 16:51:18 437.305
NOAA 15 06 May 16:48:20 16:51:00 14° 56° (ENE) 16:53:42 137.62
CUSAT 1 06 May 16:51:18 16:54:09 17° 301° (WNW) 16:57:31 437.405
Cosmos 2491 06 May 16:54:55 17:02:33 31° 66° (ENE) 17:10:05 435.465 / 435.565
SO-50 06 May 17:03:12 17:05:43 15° 252° (WSW) 17:08:13 436.795
Cubesat XI-IV 06 May 17:05:27 17:07:58 14° 56° (NE) 17:10:29 437.490
NOAA 18 06 May 17:06:04 17:09:50 19° 59° (ENE) 17:13:35 137.9125
YUBILEINY 06 May 17:12:39 17:16:01 13° 72° (ENE) 17:19:24 435.215
KKS-1 06 May 17:18:16 17:22:46 78° 286° (WNW) 17:27:12 437.445
ITUPSAT 1 06 May 17:19:46 17:22:22 15° 301° (WNW) 17:24:57 437.325
STARS 06 May 17:23:39 17:28:02 63° 102° (ESE) 17:32:23 437.465
SWISSCUBE 06 May 17:27:53 17:29:21 11° 303° (WNW) 17:30:50 437.505
HORYU 2 06 May 17:45:22 17:49:30 38° 262° (W) 17:53:41 437.375
M-CUBED/EXP-1 PRIME 06 May 17:50:28 17:52:59 15° 56° (NE) 17:55:28 437.505
MOZHAYETS 4 06 May 17:51:37 17:56:04 53° 288° (WNW) 18:00:32
AO-7 06 May 17:55:08 18:00:57 21° 270° (W) 18:06:49 29.400- 29.500
CUTE-I 06 May 17:56:47 18:01:34 35° 66° (ENE) 18:06:22 437.470
BRITE-PL 06 May 18:02:59 18:07:34 36° 67° (ENE) 18:12:28 437.365/2234.400
AUBIESAT-1 06 May 18:05:03 18:07:52 16° 57° (ENE) 18:10:38 437.475
CUBESAT XI-V 06 May 18:11:11 18:15:20 30° 95° (E) 18:19:29 437.345
PCSat 06 May 18:16:22 18:18:27 12° 330° (NNW) 18:20:32 145.827
BEESAT 3 06 May 18:19:08 18:23:04 79° 123° (ESE) 18:27:02 437.485
NOAA 15 06 May 18:24:44 18:30:01 89° 75° (ENE) 18:35:21 137.62
DOVE 4 06 May 18:29:24 18:32:59 19° 61° (ENE) 18:36:37 437.250
BEESAT 2 06 May 18:34:36 18:38:34 67° 121° (ESE) 18:42:32 435.950
Cubesat XI-IV 06 May 18:41:54 18:47:14 85° 74° (ENE) 18:52:35 437.490
LilacSat-2 06 May 18:43:59 18:47:51 82° 76° (ENE) 18:51:45 437.200
NOAA 18 06 May 18:44:26 18:49:56 70° 257° (WSW) 18:55:26 137.9125
Cosmos 2491 06 May 18:51:20 19:00:01 64° 268° (W) 19:08:36 435.465 / 435.565
GOMX 1 06 May 18:52:41 18:57:43 53° 71° (ENE) 19:03:00 467.674
STARS 06 May 19:01:26 19:03:53 15° 299° (WNW) 19:06:21 437.465
YUBILEINY 06 May 19:02:25 19:11:02 68° 93° (E) 19:19:39 435.215
AO-85 06 May 19:04:04 19:06:42 14° 28° (NNE) 19:09:13 145.980
CANX-2 06 May 19:06:17 19:07:30 11° 60° (ENE) 19:08:43 2200.000
AIST 2 06 May 19:06:46 19:07:36 11° 108° (ESE) 19:08:26 435.215
M-CUBED/EXP-1 PRIME 06 May 19:22:15 19:26:59 81° 251° (WSW) 19:31:34 437.505
STRAND 1 06 May 19:33:58 19:37:39 20° 92° (E) 19:41:18 437.568
CUTE 1.7 + AOD 2 06 May 19:36:09 19:39:12 20° 65° (ENE) 19:42:16 437.475
CUTE-I 06 May 19:36:52 19:41:37 33° 264° (W) 19:46:23 437.470
AUBIESAT-1 06 May 19:37:16 19:41:53 69° 253° (WSW) 19:46:23 437.475
HO-68 06 May 19:40:52 19:47:32 44° 64° (ENE) 19:54:12 435.675
BRITE-PL 06 May 19:41:39 19:46:04 31° 267° (W) 19:50:48 437.365/2234.400
CUBESAT XI-V 06 May 19:48:33 19:52:40 31° 292° (WNW) 19:56:48 437.345
COMPASS 1 06 May 19:51:42 19:54:11 16° 63° (ENE) 19:56:39 437.405
Cosmos 2504 06 May 19:52:27 19:58:45 34° 86° (E) 20:05:04 435.465 / 435.565
SEEDS 06 May 19:55:20 19:58:37 23° 67° (ENE) 20:01:55 437.485
BEESAT 3 06 May 19:58:53 20:01:16 15° 322° (NW) 20:03:41 437.485
DOVE 4 06 May 20:04:56 20:10:05 67° 259° (W) 20:15:25 437.250
NOAA 15 06 May 20:08:30 20:10:31 12° 272° (W) 20:12:32 137.62
BEESAT 2 06 May 20:14:09 20:16:50 17° 321° (NW) 20:19:31 435.950
CINEMA 3 06 May 20:17:09 20:22:05 59° 73° (ENE) 20:26:59 145.822/145.860
AAUSAT CUBESAT 2 06 May 20:17:20 20:20:34 23° 67° (ENE) 20:23:50 437.432
UWE-3 06 May 20:20:58 20:23:48 17° 63° (ENE) 20:26:38 435.000/436.395/437.385
RS-15 06 May 20:23:27 20:32:35 30° 102° (ESE) 20:42:04 29.354- 29.394
Cubesat XI-IV 06 May 20:25:36 20:27:58 13° 272° (W) 20:30:22 437.490
GOMX 1 06 May 20:32:09 20:36:07 22° 270° (W) 20:40:14 467.674
CUBEBUG 2 06 May 20:36:07 20:40:15 31° 69° (ENE) 20:44:19 437.445
CANX-2 06 May 20:38:31 20:42:44 80° 259° (WSW) 20:46:58 2200.000
AIST 2 06 May 20:41:18 20:45:26 82° 305° (NW) 20:49:37 435.215
ZACube-1 06 May 20:41:38 20:44:37 18° 64° (ENE) 20:47:34 437.345
AO-85 06 May 20:43:30 20:48:19 59° 51° (NE) 20:52:41 145.980
Cosmos 2491 06 May 20:52:03 20:54:56 12° 289° (WNW) 20:57:47 435.465 / 435.565
PRISM 06 May 20:53:45 20:57:02 22° 94° (E) 21:00:17 437.425
DELFI C3 06 May 20:57:07 20:58:48 12° 62° (ENE) 21:00:29 145.870
YUBILEINY 06 May 21:01:13 21:08:32 29° 295° (WNW) 21:15:54 435.215
CUTE 1.7 + AOD 2 06 May 21:10:50 21:14:47 40° 262° (W) 21:18:46 437.475
STRAND 1 06 May 21:12:09 21:17:09 55° 289° (WNW) 21:22:08 437.568
Oscar 11 06 May 21:13:52 21:17:52 39° 71° (ENE) 21:21:54 145.826/435.025
COMPASS 1 06 May 21:25:20 21:29:21 51° 261° (W) 21:33:23 437.405
HO-68 06 May 21:28:40 21:35:17 40° 262° (W) 21:41:56 435.675
SEEDS 06 May 21:30:24 21:34:10 33° 263° (W) 21:37:57 437.485
FUNcube-1 06 May 21:31:27 21:35:48 51° 73° (ENE) 21:40:04 145.935
Cosmos 2504 06 May 21:45:07 21:51:56 44° 286° (WNW) 21:58:47 435.465 / 435.565
AAUSAT CUBESAT 2 06 May 21:52:14 21:55:55 32° 263° (W) 21:59:38 437.432
UWE-3 06 May 21:55:18 21:59:51 59° 260° (W) 22:04:19 435.000/436.395/437.385
CINEMA 3 06 May 21:56:10 21:59:32 18° 269° (W) 22:02:56 145.822/145.860
CUBEBUG 2 06 May 22:12:44 22:16:51 29° 265° (W) 22:20:54 437.445
ZACube-1 06 May 22:16:09 22:20:31 51° 260° (W) 22:24:52 437.345
AIST 2 06 May 22:22:22 22:24:36 14° 325° (NW) 22:26:50 435.215
ESTCUBE 1 06 May 22:24:19 22:26:14 13° 59° (ENE) 22:28:09 437.505/2401.250
AO-85 06 May 22:25:08 22:28:14 18° 252° (WSW) 22:31:09 145.980
PRISM 06 May 22:28:37 22:32:25 34° 291° (WNW) 22:36:13 437.425
DELFI C3 06 May 22:29:18 22:33:11 61° 259° (W) 22:37:07 145.870
RS-15 06 May 22:32:17 22:43:39 82° 306° (NW) 22:55:46 29.354- 29.394
UNISAT 6 06 May 22:40:23 22:42:54 15° 91° (E) 22:45:23 437.425
HUMSAT D 06 May 22:41:08 22:45:20 79° 74° (ENE) 22:49:30 437.325/437.525
50 SAT 06 May 22:48:33 22:50:24 13° 64° (ENE) 22:52:13 437.505
VELOX 1 06 May 22:50:18 22:53:06 17° 62° (ENE) 22:55:55 145.980
Oscar 11 06 May 22:50:59 22:54:10 20° 267° (W) 22:57:21 145.826/435.025
TIGRISAT 06 May 22:55:46 22:59:01 21° 93° (E) 23:02:13 435.000
GONETS M04 06 May 22:56:51 23:01:08 15° 73° (ENE) 23:05:25
FUNcube-1 06 May 23:09:28 23:12:19 17° 269° (W) 23:15:08 145.935
ANTELSAT 06 May 23:21:17 23:25:22 40° 98° (E) 23:29:22 437.575/2403.000
AISAT 06 May 23:21:35 23:25:35 34° 68° (ENE) 23:29:39 437.250
PCSat 06 May 23:31:19 23:36:19 35° 48° (NE) 23:41:17 145.827
O/OREOS (USA 219) 06 May 23:34:21 23:38:22 30° 57° (ENE) 23:42:19 437.305
CUBEBUG 1 06 May 23:45:26 23:49:44 55° 72° (ENE) 23:54:04 437.445
Cosmos 2499 06 May 23:49:12 23:52:14 13° 76° (ENE) 23:55:18 435.465 / 435.565
DUCHIFAT 1 06 May 23:53:48 23:56:30 16° 92° (E) 23:59:11 145.980
ESTCUBE 1 06 May 23:57:56 00:02:24 79° 256° (WSW) 00:06:56 437.505/2401.250
CUSAT 1 06 May 23:58:00 00:01:01 13° 56° (NE) 00:04:07 437.405
QB50P2 07 May 00:00:01 00:03:22 22° 94° (E) 00:06:41 145.880/145.840
POLYITAN 1 07 May 00:02:14 00:05:35 23° 94° (E) 00:08:56 437.675
POPSAT HIP 1 07 May 00:03:35 00:06:58 23° 94° (E) 00:10:18 437.405
UKube-1 07 May 00:04:08 00:08:25 66° 73° (ENE) 00:12:44 .
DX 1 07 May 00:05:57 00:10:20 84° 73° (ENE) 00:14:45 434.975-435.025
QB50P1 07 May 00:06:17 00:09:47 25° 95° (E) 00:13:14 145.935-145.965
UNISAT 6 07 May 00:15:46 00:19:57 51° 288° (WNW) 00:24:05 437.425
BUGSAT 1 07 May 00:17:15 00:19:30 14° 90° (E) 00:21:45 437.445
50 SAT 07 May 00:20:18 00:23:48 46° 260° (W) 00:27:20 437.505
VELOX 1 07 May 00:24:46 00:29:08 56° 259° (W) 00:33:33 145.980
SPROUT 07 May 00:25:39 00:29:52 57° 73° (ENE) 00:34:08 437.525
TIGRISAT 07 May 00:31:53 00:35:52 37° 290° (WNW) 00:39:46 435.000
NANOSAT C BR1 07 May 00:38:05 00:42:14 52° 100° (E) 00:46:19 145.865
TISAT 1 07 May 00:43:32 00:47:09 28° 67° (ENE) 00:50:47 437.305
JAS-2 07 May 00:44:30 00:49:18 17° 85° (E) 00:54:01 435.910
GONETS M04 07 May 00:47:30 00:56:18 73° 94° (E) 01:05:05
RS-15 07 May 00:47:50 00:58:14 35° 335° (NNW) 01:09:06 29.354- 29.394
AIST 1 07 May 00:48:11 00:52:31 80° 281° (W) 00:56:55
AISAT 07 May 00:58:27 01:02:07 25° 265° (W) 01:05:50 437.250
ANTELSAT 07 May 00:58:40 01:01:49 20° 296° (WNW) 01:04:56 437.575/2403.000
BEESAT 3 07 May 00:58:49 01:00:37 13° 35° (NE) 01:02:23 437.485
ITUPSAT 1 07 May 01:13:44 01:16:06 14° 59° (ENE) 01:18:27 437.325
O/OREOS (USA 219) 07 May 01:13:47 01:17:43 30° 256° (WSW) 01:21:38 437.305
PCSat 07 May 01:14:44 01:19:46 40° 248° (WSW) 01:24:46 145.827
BEESAT 2 07 May 01:15:07 01:16:37 12° 33° (NNE) 01:18:06 435.950
DANDE 07 May 01:19:13 01:24:39 24° 66° (ENE) 01:30:48 436.750
SWISSCUBE 07 May 01:19:49 01:22:54 17° 61° (ENE) 01:25:59 437.505
CUBEBUG 1 07 May 01:23:47 01:26:22 15° 270° (W) 01:28:58 437.445
DUCHIFAT 1 07 May 01:28:25 01:32:28 46° 288° (WNW) 01:36:28 145.980
QB50P2 07 May 01:35:25 01:39:15 34° 291° (WNW) 01:43:04 145.880/145.840
Cosmos 2499 07 May 01:36:59 01:44:01 82° 96° (E) 01:51:14 435.465 / 435.565
CUSAT 1 07 May 01:37:18 01:44:38 55° 74° (ENE) 01:52:32 437.405
POLYITAN 1 07 May 01:37:39 01:41:29 33° 291° (WNW) 01:45:15 437.675
POPSAT HIP 1 07 May 01:39:00 01:42:49 33° 291° (WNW) 01:46:37 437.405
QB50P1 07 May 01:41:50 01:45:34 31° 292° (WNW) 01:49:17 145.935-145.965
UKube-1 07 May 01:43:06 01:44:55 12° 270° (W) 01:46:43 .
BUGSAT 1 07 May 01:51:09 01:55:14 52° 287° (WNW) 01:59:14 437.445
BEESAT 07 May 01:51:11 01:55:18 30° 66° (ENE) 01:59:26 436.000
SPROUT 07 May 02:03:51 02:06:11 14° 270° (W) 02:08:32 437.525
NANOSAT C BR1 07 May 02:14:57 02:17:33 16° 297° (WNW) 02:20:08 145.865
TISAT 1 07 May 02:19:04 02:22:44 28° 264° (W) 02:26:27 437.305
JAS-2 07 May 02:27:28 02:35:22 80° 103° (ESE) 02:43:07 435.910
BEESAT 3 07 May 02:35:02 02:39:00 77° 55° (NE) 02:42:57 437.485
Oscar 19 07 May 02:40:08 02:45:19 61° 101° (ESE) 02:50:26 437.125/150
KKS-1 07 May 02:43:41 02:46:01 14° 60° (ENE) 02:48:20 437.445
GONETS M04 07 May 02:46:44 02:53:58 27° 296° (WNW) 03:01:15
ITUPSAT 1 07 May 02:48:31 02:53:17 80° 255° (WSW) 02:58:05 437.325
BEESAT 2 07 May 02:51:15 02:55:15 67° 54° (NE) 02:59:12 435.950
SWISSCUBE 07 May 02:55:32 03:00:14 61° 259° (W) 03:04:57 437.505
DANDE 07 May 03:01:01 03:08:00 81° 262° (W) 03:16:17 436.750
RS-15 07 May 03:05:26 03:15:29 29° 10° (N) 03:25:46 29.354- 29.394
Gurwin Techsat 1B 07 May 03:11:31 03:16:42 50° 99° (E) 03:21:50 435.225
MOZHAYETS 4 07 May 03:19:10 03:22:28 20° 64° (ENE) 03:25:47
CUSAT 1 07 May 03:19:48 03:26:34 37° 271° (W) 03:33:43 437.405
AIST 2 07 May 03:23:40 03:26:23 17° 38° (NE) 03:29:05 435.215
BEESAT 07 May 03:28:47 03:33:02 32° 264° (W) 03:37:18 436.000
Cosmos 2499 07 May 03:33:19 03:38:07 19° 298° (WNW) 03:43:02 435.465 / 435.565
AO-7 07 May 03:59:25 04:06:07 26° 93° (E) 04:12:47 29.400- 29.500
ITAMSAT 1 07 May 04:08:49 04:14:00 69° 103° (ESE) 04:19:11 435.822/435.867
JAS-2 07 May 04:13:26 04:19:34 26° 302° (WNW) 04:25:42 435.910
BEESAT 3 07 May 04:15:20 04:16:06 10° 252° (WSW) 04:16:51 437.485
KKS-1 07 May 04:17:33 04:22:01 71° 258° (WSW) 04:26:32 437.445
Oscar 19 07 May 04:20:29 04:24:10 20° 299° (WNW) 04:27:49 437.125/150
STARS 07 May 04:21:29 04:25:53 69° 74° (ENE) 04:30:19 437.465
BEESAT 2 07 May 04:30:55 04:32:34 12° 251° (WSW) 04:34:12 435.950
DANDE 07 May 04:45:48 04:50:10 17° 277° (W) 04:54:54 436.750
Gurwin Techsat 1B 07 May 04:52:08 04:56:20 24° 297° (WNW) 05:00:32 435.225
MOZHAYETS 4 07 May 04:54:56 04:59:19 46° 261° (W) 05:03:44
AIST 2 07 May 05:01:14 05:05:23 77° 239° (WSW) 05:09:31 435.215
YUBILEINY 07 May 05:10:43 05:18:36 36° 69° (ENE) 05:26:27 435.215
CUBESAT XI-V 07 May 05:15:59 05:20:09 35° 69° (ENE) 05:24:22 437.345
RS-15 07 May 05:19:41 05:31:37 54° 42° (NE) 05:43:37 29.354- 29.394
HORYU 2 07 May 05:34:26 05:38:29 34° 97° (E) 05:42:30 437.375
SO-50 07 May 05:38:12 05:41:19 17° 110° (ESE) 05:44:26 436.795
Cosmos 2504 07 May 05:42:28 05:46:25 14° 58° (ENE) 05:50:28 435.465 / 435.565
ITAMSAT 1 07 May 05:49:31 05:52:56 18° 300° (WNW) 05:56:21 435.822/435.867
AO-7 07 May 05:51:17 05:59:36 74° 292° (WNW) 06:07:54 29.400- 29.500
Cosmos 2491 07 May 05:58:45 06:06:17 33° 83° (E) 06:13:50 435.465 / 435.565
STARS 07 May 06:00:50 06:02:43 12° 270° (W) 06:04:37 437.465
BRITE-PL 07 May 06:07:57 06:10:12 12° 85° (E) 06:12:25 437.365/2234.400
CUTE-I 07 May 06:14:13 06:15:56 11° 87° (E) 06:17:37 437.470
ISS 07 May 06:27:15 06:30:23 47° 143° (SE) 06:33:33 145.825
NOAA 15 07 May 06:38:37 06:43:14 29° 95° (E) 06:47:51 137.62
STRAND 1 07 May 06:51:10 06:55:41 33° 66° (ENE) 07:00:14 437.568
CUBESAT XI-V 07 May 06:53:47 06:57:36 26° 266° (W) 07:01:28 437.345
GOMX 1 07 May 06:54:33 06:57:42 16° 87° (E) 07:00:45 467.674
Cubesat XI-IV 07 May 06:57:51 07:02:29 30° 95° (E) 07:07:06 437.490
NOAA 18 07 May 07:04:55 07:10:06 43° 99° (E) 07:15:16 137.9125
YUBILEINY 07 May 07:07:21 07:15:43 54° 270° (W) 07:24:06 435.215
HORYU 2 07 May 07:11:18 07:14:54 25° 294° (WNW) 07:18:29 437.375
SO-50 07 May 07:16:23 07:21:17 70° 307° (NW) 07:26:12 436.795
RS-15 07 May 07:32:33 07:44:25 58° 247° (WSW) 07:56:16 29.354- 29.394
Cosmos 2504 07 May 07:33:32 07:41:14 71° 80° (E) 07:49:28 435.465 / 435.565
BRITE-PL 07 May 07:43:45 07:49:30 84° 103° (ESE) 07:55:02 437.365/2234.400
PRISM 07 May 07:45:06 07:48:08 20° 65° (ENE) 07:51:11 437.425
AO-7 07 May 07:45:34 07:51:02 20° 314° (NW) 07:56:31 29.400- 29.500
LilacSat-2 07 May 07:50:03 07:53:52 81° 282° (WNW) 07:57:38 437.200
CUTE-I 07 May 07:51:22 07:56:44 87° 105° (ESE) 08:02:04 437.470
Cosmos 2491 07 May 07:53:56 08:02:36 59° 284° (WNW) 08:11:22 435.465 / 435.565
DOVE 4 07 May 08:03:01 08:07:32 32° 94° (E) 08:11:48 437.250
ISS 07 May 08:03:55 08:06:56 34° 341° (NNW) 08:09:58 145.825
CINEMA 3 07 May 08:12:59 08:14:31 11° 87° (E) 08:16:01 145.822/145.860
NOAA 15 07 May 08:18:11 08:23:06 39° 293° (WNW) 08:28:00 137.62
CANX-2 07 May 08:23:04 08:25:39 16° 91° (E) 08:28:16 2200.000
STRAND 1 07 May 08:30:18 08:34:51 32° 264° (W) 08:39:25 437.568
GOMX 1 07 May 08:30:58 08:36:23 73° 285° (WNW) 08:41:29 467.674
M-CUBED/EXP-1 PRIME 07 May 08:35:31 08:39:17 55° 105° (ESE) 08:42:44 437.505
Cubesat XI-IV 07 May 08:37:43 08:42:38 39° 293° (WNW) 08:47:32 437.490
NOAA 18 07 May 08:45:57 08:50:34 29° 297° (WNW) 08:55:11 137.9125
AUBIESAT-1 07 May 08:49:48 08:53:35 67° 107° (ESE) 08:57:04 437.475
HO-68 07 May 08:53:55 09:00:31 38° 97° (E) 09:07:05 435.675
CUTE 1.7 + AOD 2 07 May 08:54:03 08:57:45 29° 95° (E) 09:01:28 437.475
SO-50 07 May 08:59:37 09:02:39 16° 328° (NNW) 09:05:40 436.795
COMPASS 1 07 May 09:06:58 09:10:13 22° 93° (E) 09:13:28 437.405
SEEDS 07 May 09:12:17 09:16:07 34° 97° (E) 09:19:57 437.485
PHONESAT 2.4 07 May 09:15:25 09:18:04 25° 163° (SSE) 09:20:43 2401.200-2431.200
PRISM 07 May 09:19:25 09:23:12 37° 262° (W) 09:27:03 437.425
BRITE-PL 07 May 09:23:39 09:27:12 17° 301° (WNW) 09:30:42 437.365/2234.400
Cosmos 2504 07 May 09:28:03 09:33:56 25° 278° (W) 09:40:08 435.465 / 435.565
AAUSAT CUBESAT 2 07 May 09:32:31 09:36:17 33° 97° (E) 09:40:03 437.432
CUTE-I 07 May 09:33:10 09:36:03 15° 303° (WNW) 09:38:57 437.470
UNISAT 6 07 May 09:40:34 09:43:46 19° 64° (ENE) 09:46:56 437.425
DOVE 4 07 May 09:40:43 09:45:11 32° 293° (WNW) 09:49:25 437.250
ISS 07 May 09:41:24 09:44:02 22° 1° (N) 09:46:40 145.825
UWE-3 07 May 09:44:01 09:47:24 23° 94° (E) 09:50:43 435.000/436.395/437.385
CINEMA 3 07 May 09:47:42 09:52:16 72° 285° (WNW) 09:56:36 145.822/145.860
RS-15 07 May 09:49:58 09:54:01 12° 268° (W) 09:58:05 29.354- 29.394
TIGRISAT 07 May 09:55:44 09:59:27 25° 66° (ENE) 10:03:07 435.000
CANX-2 07 May 09:57:43 10:01:48 48° 288° (WNW) 10:05:52 2200.000
Cosmos 2491 07 May 09:57:58 10:01:44 13° 308° (NW) 10:05:32 435.465 / 435.565
CUBEBUG 2 07 May 10:01:32 10:05:43 51° 99° (E) 10:09:47 437.445
ZACube-1 07 May 10:03:20 10:06:49 25° 94° (E) 10:10:14 437.345
DELFI C3 07 May 10:06:31 10:08:53 15° 91° (E) 10:11:14 145.870
M-CUBED/EXP-1 PRIME 07 May 10:11:29 10:13:20 13° 305° (NW) 10:15:09 437.505
GOMX 1 07 May 10:11:36 10:13:25 12° 305° (NW) 10:15:13 467.674
ANTELSAT 07 May 10:21:13 10:25:36 45° 71° (ENE) 10:29:55 437.575/2403.000
HUMSAT D 07 May 10:25:34 10:26:27 11° 89° (E) 10:27:21 437.325/437.525
AUBIESAT-1 07 May 10:26:18 10:27:29 11° 306° (NW) 10:28:39 437.475
CUTE 1.7 + AOD 2 07 May 10:30:00 10:33:31 26° 292° (WNW) 10:37:03 437.475
Oscar 11 07 May 10:35:01 10:39:20 65° 101° (E) 10:43:36 145.826/435.025
HO-68 07 May 10:41:36 10:48:19 46° 296° (WNW) 10:55:02 435.675
COMPASS 1 07 May 10:42:05 10:45:52 34° 290° (WNW) 10:49:39 437.405
DUCHIFAT 1 07 May 10:47:35 10:50:16 17° 63° (ENE) 10:52:58 145.980
SEEDS 07 May 10:48:21 10:51:39 23° 293° (WNW) 10:54:58 437.485
PHONESAT 2.4 07 May 10:51:35 10:54:33 40° 180° (S) 10:57:32 2401.200-2431.200
AIST 1 07 May 10:53:46 10:57:39 29° 73° (ENE) 11:01:30
FUNcube-1 07 May 10:53:57 10:58:09 87° 104° (ESE) 11:02:17 145.935
QB50P2 07 May 10:54:20 10:57:38 22° 65° (ENE) 11:00:56 145.880/145.840
GONETS M04 07 May 10:56:05 11:04:10 39° 70° (ENE) 11:12:09
POLYITAN 1 07 May 10:56:32 10:59:51 22° 66° (ENE) 11:03:12 437.675
POPSAT HIP 1 07 May 10:57:44 11:01:05 22° 66° (ENE) 11:04:25 437.405
QB50P1 07 May 11:00:20 11:03:47 24° 66° (ENE) 11:07:14 145.935-145.965
AO-85 07 May 11:00:21 11:03:39 16° 108° (ESE) 11:06:56 145.980
AAUSAT CUBESAT 2 07 May 11:08:20 11:11:37 23° 293° (WNW) 11:14:54 437.432
BUGSAT 1 07 May 11:08:56 11:11:11 14° 61° (ENE) 11:13:25 437.445
UNISAT 6 07 May 11:15:40 11:20:09 50° 261° (W) 11:24:34 437.425
ISS 07 May 11:17:59 11:21:05 39° 21° (NNE) 11:24:10 145.825
